Simultaneous Nadir Overpasses (SNOs) Predictions

Prediction of SNOs between LANDSAT-8 and METOP-B Satellite Orbit:

Table of predicted SNOs for the next 14.0 days since TLE Epoch: 5/24/2014
Index Date (LANDSAT-8) Time (LANDSAT-8) Lat,Lon (LANDSAT-8) SZA (LANDSAT-8 ) Date (METOP-B) Time (METOP-B) Lat,Lon (METOP-B) SZA (METOP-B ) Distance(km) Time Diff (sec)
1 05/26/2014 21:19:05 -81.12, 80.07 117.88 05/26/2014 21:17:57 -81.12, 80.08 117.91 0.31 68
2 05/26/2014 22:08:30 81.14,-111.92 62.17 05/26/2014 22:08:36 81.15,-111.86 62.19 1.22 6
3 05/29/2014 16:53:22 -81.12, 146.56 118.33 05/29/2014 16:52:20 -81.12, 146.48 118.37 1.38 62
4 05/29/2014 17:42:47 81.15, -45.45 61.72 05/29/2014 17:42:59 81.15, -45.45 61.73 0.30 12
5 06/01/2014 12:27:39 -81.13,-146.90 118.72 06/01/2014 12:26:41 -81.13,-146.78 118.73 2.19 58
6
